BAW5DW EGLL-LPPT

Flight info

Callsign BAW5DW
Flight time 2h 16m
Altitude 35000
Route GASGU N866 SAM M195 LORKU DCT POZOF DCT BALDA DCT ABUPI DCT XAMAX
Aircraft A21N/M-SDE2E3FGHIRWXY/LB1

Departure

Time 2026-05-06 12:06
Airport London Heathrow Airport (EGLL)

Arrival

Time 2026-05-06 14:22
Airport Lisbon Humberto Delgado Airport (LPPT)
Time Latitude Longitude Altitude Speed Heading
2026-05-06 11:42 51.46926 -0.48573 92 ft 0 kts 360°
2026-05-06 11:55 51.46917 -0.48573 91 ft 4 kts 360°
2026-05-06 11:55 51.46895 -0.48573 91 ft 4 kts 356°
2026-05-06 11:55 51.46879 -0.48561 91 ft 4 kts 283°
2026-05-06 11:55 51.46877 -0.48529 91 ft 4 kts 271°
2026-05-06 11:56 51.46874 -0.48488 92 ft 4 kts 300°
2026-05-06 11:56 51.46858 -0.48469 95 ft 3 kts 359°
2026-05-06 11:56 51.46835 -0.48469 92 ft 1 kts 360°
2026-05-06 11:56 51.46834 -0.48469 92 ft 0 kts 360°
2026-05-06 12:00 51.46853 -0.48468 91 ft 6 kts
2026-05-06 12:00 51.46877 -0.48406 91 ft 8 kts 90°
2026-05-06 12:00 51.46833 -0.48353 94 ft 8 kts 180°
2026-05-06 12:01 51.46827 -0.48354 91 ft 0 kts 180°
2026-05-06 12:02 51.46823 -0.48354 91 ft 2 kts 180°
2026-05-06 12:02 51.46799 -0.48354 92 ft 5 kts 181°
2026-05-06 12:02 51.46759 -0.48372 94 ft 8 kts 222°
2026-05-06 12:02 51.46725 -0.48454 94 ft 11 kts 204°
2026-05-06 12:03 51.46646 -0.48468 92 ft 10 kts 178°
2026-05-06 12:03 51.46601 -0.48467 92 ft 2 kts 178°
2026-05-06 12:03 51.46598 -0.48466 92 ft 0 kts 179°
2026-05-06 12:04 51.46588 -0.48466 92 ft 3 kts 179°
2026-05-06 12:04 51.46557 -0.48465 92 ft 6 kts 179°
2026-05-06 12:04 51.46507 -0.48455 95 ft 9 kts 144°
2026-05-06 12:04 51.46478 -0.48352 93 ft 12 kts 93°
2026-05-06 12:05 51.46481 -0.48204 94 ft 18 kts 91°
2026-05-06 12:05 51.46482 -0.47626 91 ft 85 kts 90°
2026-05-06 12:05 51.46487 -0.46352 94 ft 139 kts 89°
2026-05-06 12:05 51.46487 -0.44605 204 ft 170 kts 86°
2026-05-06 12:06 51.46463 -0.42725 786 ft 170 kts 88°
2026-05-06 12:06 51.46350 -0.40813 1372 ft 176 kts 101°
2026-05-06 12:06 51.45686 -0.39118 1834 ft 193 kts 135°
2026-05-06 12:06 51.44653 -0.37609 2269 ft 208 kts 123°
2026-05-06 12:07 51.43810 -0.35604 2864 ft 220 kts 120°
2026-05-06 12:07 51.42798 -0.33678 3318 ft 244 kts 139°
2026-05-06 12:07 51.41205 -0.32445 3747 ft 267 kts 169°
2026-05-06 12:07 51.39332 -0.32580 4431 ft 275 kts 199°
2026-05-06 12:08 51.37679 -0.34090 5229 ft 275 kts 223°
2026-05-06 12:08 51.36270 -0.36163 6086 ft 277 kts 227°
2026-05-06 12:08 51.34868 -0.38290 6910 ft 279 kts 226°
2026-05-06 12:08 51.33436 -0.40406 7725 ft 282 kts 225°
2026-05-06 12:09 51.31961 -0.42491 8562 ft 285 kts 221°
2026-05-06 12:09 51.30544 -0.44698 9356 ft 285 kts 241°
2026-05-06 12:09 51.29793 -0.47608 10131 ft 285 kts 257°
2026-05-06 12:09 51.29267 -0.50765 10527 ft 304 kts 258°
2026-05-06 12:10 51.28720 -0.54140 10914 ft 322 kts 258°
2026-05-06 12:10 51.28126 -0.57632 11597 ft 328 kts 257°
2026-05-06 12:10 51.27473 -0.61146 12401 ft 331 kts 256°
2026-05-06 12:10 51.26793 -0.64670 13183 ft 334 kts 254°
2026-05-06 12:11 51.26100 -0.68225 13948 ft 337 kts 254°
2026-05-06 12:11 51.25399 -0.71818 14557 ft 339 kts 255°
2026-05-06 12:11 51.24695 -0.75422 14881 ft 340 kts 254°
2026-05-06 12:11 51.23992 -0.79022 14982 ft 339 kts 254°
2026-05-06 12:12 51.23283 -0.82639 15001 ft 341 kts 254°
2026-05-06 12:12 51.22571 -0.86260 15000 ft 344 kts 253°
2026-05-06 12:12 51.21859 -0.89881 15000 ft 341 kts 253°
2026-05-06 12:12 51.21126 -0.93483 14995 ft 340 kts 251°
2026-05-06 12:13 51.20026 -0.96837 14984 ft 345 kts 235°
2026-05-06 12:13 51.18405 -0.99662 14993 ft 346 kts 226°
2026-05-06 12:13 51.16654 -1.02308 14995 ft 346 kts 225°
2026-05-06 12:13 51.14905 -1.04941 14995 ft 346 kts 226°
2026-05-06 12:14 51.13162 -1.07586 14996 ft 346 kts 226°
2026-05-06 12:14 51.11419 -1.10245 14993 ft 347 kts 225°
2026-05-06 12:14 51.09682 -1.12902 14993 ft 347 kts 225°
2026-05-06 12:14 51.07946 -1.15559 14993 ft 346 kts 226°
2026-05-06 12:15 51.06210 -1.18221 14991 ft 347 kts 226°
2026-05-06 12:15 51.04470 -1.20882 14991 ft 347 kts 226°
2026-05-06 12:15 51.02731 -1.23538 14993 ft 346 kts 226°
2026-05-06 12:15 51.01019 -1.26149 14994 ft 346 kts 226°
2026-05-06 12:16 50.99282 -1.28799 15318 ft 348 kts 226°
2026-05-06 12:16 50.97502 -1.31508 15972 ft 352 kts 226°
2026-05-06 12:16 50.95711 -1.34162 16687 ft 354 kts 223°
2026-05-06 12:16 50.93710 -1.36479 17388 ft 358 kts 216°
2026-05-06 12:17 50.91651 -1.38623 18056 ft 361 kts 214°
2026-05-06 12:17 50.89508 -1.40826 18671 ft 364 kts 214°
2026-05-06 12:17 50.87412 -1.42991 19228 ft 366 kts 215°
2026-05-06 12:17 50.85270 -1.45211 19786 ft 369 kts 215°
2026-05-06 12:18 50.83118 -1.47443 20344 ft 372 kts 215°
2026-05-06 12:18 50.80946 -1.49695 20890 ft 374 kts 215°
2026-05-06 12:18 50.78766 -1.51954 21440 ft 377 kts 214°
2026-05-06 12:18 50.76566 -1.54232 21969 ft 379 kts 214°
2026-05-06 12:19 50.74349 -1.56524 22494 ft 382 kts 214°
2026-05-06 12:19 50.72118 -1.58827 23032 ft 384 kts 215°
2026-05-06 12:19 50.69869 -1.61148 23537 ft 387 kts 214°
2026-05-06 12:19 50.67604 -1.63480 23961 ft 390 kts 214°
2026-05-06 12:20 50.65325 -1.65825 24392 ft 393 kts 214°
2026-05-06 12:20 50.63029 -1.68184 24813 ft 395 kts 214°
2026-05-06 12:20 50.60715 -1.70559 25201 ft 399 kts 214°
2026-05-06 12:20 50.58381 -1.72951 25583 ft 402 kts 214°
2026-05-06 12:21 50.56035 -1.75351 25981 ft 404 kts 214°
2026-05-06 12:21 50.53668 -1.77773 26374 ft 407 kts 214°
2026-05-06 12:21 50.51289 -1.80205 26756 ft 409 kts 214°
2026-05-06 12:21 50.48896 -1.82648 27140 ft 411 kts 214°
2026-05-06 12:22 50.46491 -1.85100 27501 ft 414 kts 214°
2026-05-06 12:22 50.44065 -1.87569 27841 ft 417 kts 214°
2026-05-06 12:22 50.41626 -1.90050 28173 ft 419 kts 214°
2026-05-06 12:22 50.39171 -1.92545 28494 ft 422 kts 214°
2026-05-06 12:23 50.36700 -1.95051 28840 ft 424 kts 214°
2026-05-06 12:23 50.34216 -1.97567 29167 ft 426 kts 214°
2026-05-06 12:23 50.31716 -2.00095 29478 ft 429 kts 214°
2026-05-06 12:23 50.29198 -2.02638 29789 ft 431 kts 214°
2026-05-06 12:24 50.26670 -2.05187 30098 ft 433 kts 214°
2026-05-06 12:24 50.24132 -2.07742 30358 ft 435 kts 214°
2026-05-06 12:24 50.21564 -2.10275 30626 ft 437 kts 213°
2026-05-06 12:24 50.19009 -2.12756 30894 ft 439 kts 213°
2026-05-06 12:25 50.16410 -2.15273 31145 ft 441 kts 213°
2026-05-06 12:25 50.13800 -2.17806 31404 ft 442 kts 213°
2026-05-06 12:25 50.11186 -2.20350 31650 ft 444 kts 213°
2026-05-06 12:25 50.08556 -2.22903 31888 ft 446 kts 213°
2026-05-06 12:26 50.05919 -2.25457 32175 ft 446 kts 213°
2026-05-06 12:26 50.03286 -2.28003 32484 ft 446 kts 213°
2026-05-06 12:26 50.00654 -2.30545 32782 ft 445 kts 213°
2026-05-06 12:26 49.98026 -2.33082 33077 ft 445 kts 214°
2026-05-06 12:27 49.95401 -2.35615 33374 ft 444 kts 213°
2026-05-06 12:27 49.92702 -2.37938 33638 ft 445 kts 207°
2026-05-06 12:27 49.89883 -2.39944 33857 ft 446 kts 206°
2026-05-06 12:27 49.87051 -2.41909 34072 ft 446 kts 205°
2026-05-06 12:28 49.84218 -2.43871 34273 ft 445 kts 205°
2026-05-06 12:28 49.81394 -2.45833 34487 ft 445 kts 206°
2026-05-06 12:28 49.78577 -2.47793 34690 ft 444 kts 205°
2026-05-06 12:28 49.75758 -2.49754 34896 ft 444 kts 205°
2026-05-06 12:29 49.72941 -2.51712 35020 ft 444 kts 205°
2026-05-06 12:29 49.70120 -2.53668 35025 ft 444 kts 205°
2026-05-06 12:29 49.64480 -2.57579 34996 ft 445 kts 205°
2026-05-06 12:30 49.58838 -2.61477 34995 ft 444 kts 205°
2026-05-06 12:30 49.53191 -2.65370 34996 ft 444 kts 205°
2026-05-06 12:31 49.47544 -2.69254 34987 ft 447 kts 205°
2026-05-06 12:31 49.41888 -2.73132 34992 ft 444 kts 205°
2026-05-06 12:32 49.36277 -2.76971 34993 ft 444 kts 205°
2026-05-06 12:32 49.30628 -2.80822 34991 ft 444 kts 205°
2026-05-06 12:33 49.24977 -2.84665 34980 ft 445 kts 205°
2026-05-06 12:33 49.19316 -2.88505 34981 ft 445 kts 205°
2026-05-06 12:34 49.13654 -2.92341 34982 ft 445 kts 205°
2026-05-06 12:34 49.07990 -2.96164 34982 ft 445 kts 205°
2026-05-06 12:35 49.02324 -2.99982 34976 ft 447 kts 205°
2026-05-06 12:35 48.97588 -3.03168 34979 ft 448 kts 205°
2026-05-06 12:36 48.91892 -3.06990 34975 ft 447 kts 205°
2026-05-06 12:36 48.86229 -3.10781 34983 ft 445 kts 205°
2026-05-06 12:37 48.80570 -3.14558 34992 ft 444 kts 205°
2026-05-06 12:37 48.74911 -3.18324 34994 ft 444 kts 205°
2026-05-06 12:38 48.69252 -3.22080 34982 ft 444 kts 205°
2026-05-06 12:38 48.63592 -3.25829 34987 ft 444 kts 205°
2026-05-06 12:39 48.57923 -3.29584 34985 ft 446 kts 205°
2026-05-06 12:39 48.52239 -3.33327 34985 ft 445 kts 205°
2026-05-06 12:40 48.46559 -3.37062 34974 ft 445 kts 205°
2026-05-06 12:40 48.40877 -3.40790 34975 ft 445 kts 205°
2026-05-06 12:41 48.35181 -3.44523 34971 ft 447 kts 205°
2026-05-06 12:41 48.29508 -3.48226 34969 ft 444 kts 205°
2026-05-06 12:42 48.23838 -3.51920 34969 ft 444 kts 205°
2026-05-06 12:42 48.18172 -3.55606 34967 ft 444 kts 205°
2026-05-06 12:43 48.12493 -3.59288 34968 ft 445 kts 205°
2026-05-06 12:43 48.06819 -3.62958 34963 ft 445 kts 205°
2026-05-06 12:44 48.01136 -3.66621 34962 ft 445 kts 204°
2026-05-06 12:44 47.95452 -3.70278 34961 ft 445 kts 204°
2026-05-06 12:45 47.89743 -3.73941 34956 ft 447 kts 204°
2026-05-06 12:46 47.81176 -3.79426 34960 ft 447 kts 204°
2026-05-06 12:46 47.75490 -3.83054 34960 ft 444 kts 205°
2026-05-06 12:47 47.69805 -3.86675 34961 ft 445 kts 205°
2026-05-06 12:47 47.64109 -3.90291 34964 ft 445 kts 205°
2026-05-06 12:48 47.58454 -3.93874 34963 ft 445 kts 205°
2026-05-06 12:48 47.52761 -3.97476 34967 ft 445 kts 205°
2026-05-06 12:49 47.47036 -4.01089 34981 ft 448 kts 204°
2026-05-06 12:49 47.41298 -4.04688 34975 ft 448 kts 205°
2026-05-06 12:50 47.35561 -4.08283 34981 ft 448 kts 205°
2026-05-06 12:50 47.29817 -4.11877 34981 ft 449 kts 204°
2026-05-06 12:51 47.24055 -4.15475 34980 ft 448 kts 205°
2026-05-06 12:51 47.18348 -4.19034 34989 ft 446 kts 204°
2026-05-06 12:52 47.12645 -4.22585 34988 ft 445 kts 204°
2026-05-06 12:52 47.06929 -4.26129 34997 ft 447 kts 204°
2026-05-06 12:53 47.01109 -4.29384 34997 ft 448 kts 202°
2026-05-06 12:53 46.95271 -4.32582 34995 ft 448 kts 202°
2026-05-06 12:54 46.89437 -4.35775 34995 ft 448 kts 202°
2026-05-06 12:54 46.83589 -4.38972 34995 ft 450 kts 202°
2026-05-06 12:55 46.77727 -4.42163 34996 ft 449 kts 202°
2026-05-06 12:55 46.71870 -4.45342 35001 ft 449 kts 202°
2026-05-06 12:56 46.66010 -4.48525 35005 ft 449 kts 202°
2026-05-06 12:56 46.60148 -4.51692 35003 ft 449 kts 202°
2026-05-06 12:57 46.54322 -4.54834 35012 ft 450 kts 202°
2026-05-06 12:57 46.48465 -4.57990 35010 ft 450 kts 202°
2026-05-06 12:58 46.42583 -4.61151 35003 ft 451 kts 202°
2026-05-06 12:58 46.36699 -4.64308 35014 ft 451 kts 202°
2026-05-06 12:59 46.30811 -4.67457 35022 ft 451 kts 202°
2026-05-06 12:59 46.24924 -4.70599 35022 ft 452 kts 201°
2026-05-06 13:00 46.19022 -4.73745 35020 ft 452 kts 202°
2026-05-06 13:00 46.13117 -4.76884 35025 ft 452 kts 201°
2026-05-06 13:01 46.07247 -4.79994 35024 ft 448 kts 201°
2026-05-06 13:01 46.01378 -4.83096 35024 ft 449 kts 201°
2026-05-06 13:02 45.95510 -4.86193 35024 ft 450 kts 201°
2026-05-06 13:02 45.89637 -4.89279 35024 ft 449 kts 201°
2026-05-06 13:03 45.83756 -4.92371 35023 ft 451 kts 201°
2026-05-06 13:03 45.77867 -4.95460 35027 ft 451 kts 201°
2026-05-06 13:04 45.71975 -4.98538 35026 ft 451 kts 202°
2026-05-06 13:04 45.66089 -5.01625 35030 ft 450 kts 201°
2026-05-06 13:05 45.60200 -5.04692 35033 ft 450 kts 201°
2026-05-06 13:05 45.54347 -5.07730 35025 ft 449 kts 201°
2026-05-06 13:06 45.48489 -5.10764 35032 ft 448 kts 201°
2026-05-06 13:06 45.42632 -5.13792 35027 ft 449 kts 201°
2026-05-06 13:07 45.36762 -5.16820 35032 ft 449 kts 201°
2026-05-06 13:07 45.30894 -5.19838 35029 ft 449 kts 201°
2026-05-06 13:08 45.25023 -5.22858 35028 ft 448 kts 201°
2026-05-06 13:08 45.19163 -5.25862 35036 ft 448 kts 201°
2026-05-06 13:09 45.13298 -5.28861 35032 ft 448 kts 201°
2026-05-06 13:09 45.07440 -5.31851 35037 ft 448 kts 201°
2026-05-06 13:10 45.01579 -5.34836 35041 ft 447 kts 201°
2026-05-06 13:10 44.95744 -5.37803 35038 ft 444 kts 201°
2026-05-06 13:11 44.89929 -5.40753 35039 ft 444 kts 201°
2026-05-06 13:11 44.84110 -5.43699 35035 ft 444 kts 201°
2026-05-06 13:12 44.78293 -5.46631 35035 ft 444 kts 201°
2026-05-06 13:12 44.72470 -5.49549 35036 ft 444 kts 201°
2026-05-06 13:13 44.66648 -5.52474 35035 ft 444 kts 201°
2026-05-06 13:13 44.60839 -5.55433 35035 ft 443 kts 204°
2026-05-06 13:14 44.55196 -5.58883 35036 ft 443 kts 206°
2026-05-06 13:14 44.49558 -5.62381 35034 ft 443 kts 206°
2026-05-06 13:15 44.43917 -5.65860 35037 ft 443 kts 206°
2026-05-06 13:15 44.38284 -5.69330 35038 ft 442 kts 206°
2026-05-06 13:16 44.32654 -5.72789 35035 ft 440 kts 205°
2026-05-06 13:16 44.27067 -5.76207 35032 ft 438 kts 205°
2026-05-06 13:17 44.21488 -5.79618 35036 ft 438 kts 205°
2026-05-06 13:17 44.15945 -5.82999 35035 ft 438 kts 205°
2026-05-06 13:18 44.10328 -5.86421 35037 ft 438 kts 205°
2026-05-06 13:18 44.04756 -5.89812 35037 ft 437 kts 205°
2026-05-06 13:19 43.99186 -5.93189 35034 ft 437 kts 205°
2026-05-06 13:19 43.93617 -5.96557 35038 ft 437 kts 205°
2026-05-06 13:20 43.88085 -5.99902 35038 ft 437 kts 205°
2026-05-06 13:20 43.82522 -6.03259 35037 ft 436 kts 205°
2026-05-06 13:21 43.76959 -6.06600 35036 ft 436 kts 205°
2026-05-06 13:21 43.71394 -6.09938 35037 ft 436 kts 205°
2026-05-06 13:22 43.66742 -6.12733 35038 ft 435 kts 205°
2026-05-06 13:22 43.61188 -6.16062 35031 ft 435 kts 205°
2026-05-06 13:23 43.55633 -6.19376 35047 ft 435 kts 205°
2026-05-06 13:23 43.50074 -6.22689 35047 ft 435 kts 205°
2026-05-06 13:24 43.44512 -6.25998 35040 ft 435 kts 206°
2026-05-06 13:24 43.38955 -6.29294 35033 ft 435 kts 206°
2026-05-06 13:25 43.33430 -6.32567 35020 ft 435 kts 205°
2026-05-06 13:25 43.27869 -6.35846 35013 ft 435 kts 205°
2026-05-06 13:26 43.22311 -6.39120 35004 ft 434 kts 206°
2026-05-06 13:26 43.16758 -6.42389 34996 ft 434 kts 205°
2026-05-06 13:27 43.11211 -6.45639 34991 ft 433 kts 205°
2026-05-06 13:27 43.05670 -6.48893 34988 ft 433 kts 205°
2026-05-06 13:28 43.00133 -6.52122 34980 ft 432 kts 205°
2026-05-06 13:28 42.94609 -6.55340 34981 ft 432 kts 205°
2026-05-06 13:29 42.89081 -6.58559 34975 ft 432 kts 205°
2026-05-06 13:29 42.83556 -6.61771 34976 ft 432 kts 205°
2026-05-06 13:30 42.78047 -6.64967 34970 ft 430 kts 205°
2026-05-06 13:30 42.72540 -6.68159 34975 ft 430 kts 205°
2026-05-06 13:31 42.67072 -6.71319 34980 ft 430 kts 205°
2026-05-06 13:31 42.61562 -6.74499 34971 ft 430 kts 205°
2026-05-06 13:32 42.56050 -6.77672 34970 ft 430 kts 205°
2026-05-06 13:32 42.50546 -6.80842 34972 ft 430 kts 205°
2026-05-06 13:33 42.45037 -6.84001 34968 ft 430 kts 205°
2026-05-06 13:33 42.39542 -6.87147 34966 ft 428 kts 205°
2026-05-06 13:34 42.34063 -6.90279 34967 ft 427 kts 205°
2026-05-06 13:34 42.28585 -6.93403 34967 ft 427 kts 205°
2026-05-06 13:35 42.23111 -6.96525 34975 ft 427 kts 205°
2026-05-06 13:35 42.17640 -6.99643 34972 ft 427 kts 205°
2026-05-06 13:36 42.12167 -7.02749 34970 ft 426 kts 205°
2026-05-06 13:36 42.06696 -7.05848 34969 ft 426 kts 205°
2026-05-06 13:37 42.01225 -7.08941 34977 ft 426 kts 205°
2026-05-06 13:37 41.95756 -7.12026 34968 ft 425 kts 205°
2026-05-06 13:38 41.90300 -7.15097 34971 ft 425 kts 205°
2026-05-06 13:38 41.84844 -7.18163 34976 ft 425 kts 205°
2026-05-06 13:39 41.79420 -7.21194 34978 ft 425 kts 205°
2026-05-06 13:39 41.74042 -7.24405 34962 ft 420 kts 211°
2026-05-06 13:40 41.68981 -7.28317 34965 ft 420 kts 212°
2026-05-06 13:40 41.63943 -7.32268 34972 ft 420 kts 212°
2026-05-06 13:41 41.58888 -7.36186 34966 ft 420 kts 212°
2026-05-06 13:41 41.53835 -7.40111 34970 ft 420 kts 212°
2026-05-06 13:42 41.48783 -7.44017 34967 ft 420 kts 212°
2026-05-06 13:42 41.43733 -7.47913 34970 ft 419 kts 212°
2026-05-06 13:43 41.38685 -7.51801 34967 ft 419 kts 212°
2026-05-06 13:43 41.33631 -7.55681 34969 ft 419 kts 212°
2026-05-06 13:44 41.28581 -7.59559 34972 ft 419 kts 212°
2026-05-06 13:44 41.23529 -7.63431 34970 ft 419 kts 212°
2026-05-06 13:45 41.18480 -7.67292 34969 ft 419 kts 212°
2026-05-06 13:45 41.10939 -7.73048 34968 ft 419 kts 212°
2026-05-06 13:46 41.05881 -7.76890 34960 ft 419 kts 212°
2026-05-06 13:46 41.00821 -7.80729 34964 ft 419 kts 212°
2026-05-06 13:47 40.95758 -7.84567 34963 ft 419 kts 212°
2026-05-06 13:47 40.90690 -7.88398 34964 ft 419 kts 212°
2026-05-06 13:48 40.85624 -7.92226 34957 ft 419 kts 212°
2026-05-06 13:48 40.80550 -7.96048 34967 ft 423 kts 212°
2026-05-06 13:49 40.75462 -7.99877 34965 ft 420 kts 212°
2026-05-06 13:49 40.70382 -8.03690 34966 ft 420 kts 212°
2026-05-06 13:50 40.65306 -8.07501 34972 ft 420 kts 212°
2026-05-06 13:50 40.60240 -8.11301 34867 ft 413 kts 212°
2026-05-06 13:51 40.57776 -8.13146 34603 ft 403 kts 212°
2026-05-06 13:51 40.55361 -8.14952 34360 ft 399 kts 212°
2026-05-06 13:51 40.52958 -8.16748 34121 ft 396 kts 212°
2026-05-06 13:51 40.50567 -8.18532 33874 ft 394 kts 212°
2026-05-06 13:52 40.48190 -8.20305 33611 ft 392 kts 212°
2026-05-06 13:52 40.45824 -8.22068 33325 ft 390 kts 212°
2026-05-06 13:52 40.43471 -8.23817 33048 ft 389 kts 212°
2026-05-06 13:52 40.41122 -8.25563 32778 ft 387 kts 212°
2026-05-06 13:53 40.38783 -8.27301 32509 ft 386 kts 212°
2026-05-06 13:53 40.36453 -8.29030 32241 ft 384 kts 212°
2026-05-06 13:53 40.34126 -8.30754 31980 ft 383 kts 212°
2026-05-06 13:53 40.31814 -8.32468 31723 ft 382 kts 211°
2026-05-06 13:54 40.29505 -8.34178 31459 ft 380 kts 211°
2026-05-06 13:54 40.27239 -8.35856 31220 ft 379 kts 211°
2026-05-06 13:54 40.24948 -8.37548 30976 ft 377 kts 211°
2026-05-06 13:54 40.22665 -8.39234 30720 ft 376 kts 211°
2026-05-06 13:55 40.20394 -8.40913 30477 ft 374 kts 211°
2026-05-06 13:55 40.18128 -8.42583 30231 ft 373 kts 211°
2026-05-06 13:55 40.15873 -8.44242 29970 ft 372 kts 211°
2026-05-06 13:55 40.13621 -8.45897 29683 ft 370 kts 211°
2026-05-06 13:56 40.11382 -8.47542 29394 ft 368 kts 211°
2026-05-06 13:56 40.09153 -8.49181 29115 ft 367 kts 211°
2026-05-06 13:56 40.06933 -8.50814 28959 ft 366 kts 211°
2026-05-06 13:56 40.04700 -8.52347 28650 ft 360 kts 206°
2026-05-06 13:57 40.02478 -8.53819 28069 ft 358 kts 211°
2026-05-06 13:57 40.00317 -8.55425 27516 ft 356 kts 212°
2026-05-06 13:57 39.98170 -8.57028 26986 ft 354 kts 211°
2026-05-06 13:57 39.96034 -8.58603 26491 ft 352 kts 211°
2026-05-06 13:58 39.93907 -8.60157 25997 ft 350 kts 211°
2026-05-06 13:58 39.91790 -8.61696 25516 ft 347 kts 211°
2026-05-06 13:58 39.89684 -8.63222 25015 ft 346 kts 211°
2026-05-06 13:58 39.87504 -8.64801 24536 ft 374 kts 211°
2026-05-06 13:59 39.85194 -8.66468 24243 ft 382 kts 211°
2026-05-06 13:59 39.82871 -8.68139 23977 ft 381 kts 211°
2026-05-06 13:59 39.80552 -8.69804 23720 ft 380 kts 211°
2026-05-06 13:59 39.78247 -8.71462 23443 ft 379 kts 211°
2026-05-06 14:00 39.75948 -8.73118 23133 ft 376 kts 211°
2026-05-06 14:00 39.73660 -8.74767 22819 ft 375 kts 211°
2026-05-06 14:00 39.71384 -8.76407 22524 ft 373 kts 211°
2026-05-06 14:00 39.69148 -8.78018 22225 ft 372 kts 211°
2026-05-06 14:01 39.66897 -8.79639 21932 ft 370 kts 211°
2026-05-06 14:01 39.64647 -8.81256 21645 ft 369 kts 211°
2026-05-06 14:01 39.62413 -8.82857 21357 ft 366 kts 211°
2026-05-06 14:01 39.60183 -8.84454 21070 ft 366 kts 211°
2026-05-06 14:02 39.57953 -8.86049 20801 ft 364 kts 211°
2026-05-06 14:02 39.55737 -8.87633 20517 ft 363 kts 211°
2026-05-06 14:02 39.53503 -8.89230 20226 ft 362 kts 211°
2026-05-06 14:02 39.51328 -8.90783 19923 ft 362 kts 211°
2026-05-06 14:03 39.49103 -8.92370 19581 ft 360 kts 211°
2026-05-06 14:03 39.46954 -8.93900 19245 ft 356 kts 211°
2026-05-06 14:03 39.44783 -8.95447 18917 ft 356 kts 211°
2026-05-06 14:03 39.42611 -8.96983 18581 ft 354 kts 211°
2026-05-06 14:04 39.40456 -8.98511 18249 ft 352 kts 211°
2026-05-06 14:04 39.38315 -9.00027 17876 ft 351 kts 211°
2026-05-06 14:04 39.36180 -9.01546 17503 ft 351 kts 211°
2026-05-06 14:04 39.34048 -9.03059 17135 ft 348 kts 211°
2026-05-06 14:05 39.31930 -9.04558 16766 ft 345 kts 211°
2026-05-06 14:05 39.29828 -9.06048 16408 ft 344 kts 211°
2026-05-06 14:05 39.27725 -9.07544 16049 ft 346 kts 211°
2026-05-06 14:05 39.25631 -9.09031 15697 ft 344 kts 211°
2026-05-06 14:06 39.23549 -9.10506 15352 ft 340 kts 211°
2026-05-06 14:06 39.21477 -9.11974 14998 ft 340 kts 210°
2026-05-06 14:06 39.19404 -9.13438 14656 ft 339 kts 211°
2026-05-06 14:06 39.17342 -9.14896 14319 ft 338 kts 211°
2026-05-06 14:07 39.15296 -9.16340 13986 ft 336 kts 210°
2026-05-06 14:07 39.13248 -9.17784 13625 ft 336 kts 210°
2026-05-06 14:07 39.11199 -9.19225 13257 ft 334 kts 211°
2026-05-06 14:07 39.09162 -9.20659 12888 ft 332 kts 211°
2026-05-06 14:08 39.07140 -9.22083 12523 ft 332 kts 210°
2026-05-06 14:08 39.05120 -9.23504 12154 ft 331 kts 210°
2026-05-06 14:08 39.03105 -9.24919 11822 ft 329 kts 211°
2026-05-06 14:08 39.01100 -9.26327 11467 ft 327 kts 211°
2026-05-06 14:09 38.99102 -9.27729 11113 ft 327 kts 210°
2026-05-06 14:09 38.97108 -9.29125 10770 ft 325 kts 211°
2026-05-06 14:09 38.95125 -9.30515 10432 ft 324 kts 211°
2026-05-06 14:09 38.93158 -9.31892 10089 ft 320 kts 211°
2026-05-06 14:10 38.91869 -9.32794 9866 ft 316 kts 210°
2026-05-06 14:10 38.89955 -9.34134 9491 ft 312 kts 210°
2026-05-06 14:10 38.88059 -9.35459 9115 ft 308 kts 210°
2026-05-06 14:10 38.86189 -9.36766 8758 ft 303 kts 210°
2026-05-06 14:11 38.84361 -9.38043 8503 ft 296 kts 210°
2026-05-06 14:11 38.82012 -9.39681 8273 ft 286 kts 210°
2026-05-06 14:11 38.80836 -9.40502 8165 ft 285 kts 209°
2026-05-06 14:11 38.79099 -9.41714 8015 ft 284 kts 210°
2026-05-06 14:12 38.77363 -9.42922 7971 ft 284 kts 209°
2026-05-06 14:12 38.75623 -9.44134 7987 ft 284 kts 209°
2026-05-06 14:12 38.73884 -9.45345 8007 ft 284 kts 210°
2026-05-06 14:12 38.72143 -9.46556 8003 ft 285 kts 210°
2026-05-06 14:13 38.70403 -9.47766 8013 ft 285 kts 210°
2026-05-06 14:13 38.68656 -9.48980 8017 ft 285 kts 210°
2026-05-06 14:13 38.66905 -9.50196 8018 ft 286 kts 210°
2026-05-06 14:13 38.65162 -9.51406 8015 ft 286 kts 210°
2026-05-06 14:14 38.63338 -9.52389 8004 ft 286 kts 192°
2026-05-06 14:14 38.61352 -9.52416 7998 ft 288 kts 168°
2026-05-06 14:14 38.59507 -9.51446 7820 ft 289 kts 144°
2026-05-06 14:14 38.58117 -9.49626 7541 ft 286 kts 121°
2026-05-06 14:15 38.57399 -9.47302 7229 ft 279 kts 98°
2026-05-06 14:15 38.57376 -9.44860 6926 ft 273 kts 82°
2026-05-06 14:15 38.57613 -9.42475 6604 ft 268 kts 80°
2026-05-06 14:15 38.57847 -9.40141 6279 ft 263 kts 81°
2026-05-06 14:16 38.58065 -9.37831 5943 ft 260 kts 81°
2026-05-06 14:16 38.58272 -9.35555 5583 ft 255 kts 81°
2026-05-06 14:16 38.58462 -9.33333 5230 ft 248 kts 81°
2026-05-06 14:16 38.58640 -9.31166 4913 ft 243 kts 82°
2026-05-06 14:17 38.58810 -9.29028 4581 ft 240 kts 81°
2026-05-06 14:17 38.58977 -9.26943 4248 ft 237 kts 81°
2026-05-06 14:17 38.59141 -9.24836 4012 ft 233 kts 80°
2026-05-06 14:17 38.59318 -9.22789 3933 ft 232 kts 75°
2026-05-06 14:18 38.60038 -9.21076 3733 ft 218 kts 38°
2026-05-06 14:18 38.61342 -9.20333 3483 ft 202 kts
2026-05-06 14:18 38.62727 -9.20290 3226 ft 197 kts 359°
2026-05-06 14:18 38.64081 -9.20290 2945 ft 193 kts 359°
2026-05-06 14:19 38.65413 -9.20155 2707 ft 193 kts
2026-05-06 14:19 38.66647 -9.19699 2516 ft 176 kts 17°
2026-05-06 14:19 38.67738 -9.19134 2307 ft 164 kts 19°
2026-05-06 14:19 38.68758 -9.18595 2069 ft 153 kts 18°
2026-05-06 14:20 38.69713 -9.18086 1848 ft 146 kts 17°
2026-05-06 14:20 38.70628 -9.17598 1688 ft 137 kts 18°
2026-05-06 14:20 38.71505 -9.17130 1485 ft 137 kts 17°
2026-05-06 14:20 38.72385 -9.16660 1308 ft 136 kts 16°
2026-05-06 14:21 38.73253 -9.16196 1120 ft 135 kts 15°
2026-05-06 14:21 38.74120 -9.15733 930 ft 133 kts 18°
2026-05-06 14:21 38.74981 -9.15267 722 ft 137 kts 17°
2026-05-06 14:21 38.75861 -9.14795 560 ft 140 kts 17°
2026-05-06 14:22 38.76763 -9.14319 379 ft 136 kts 19°
2026-05-06 14:22 38.77506 -9.13929 369 ft 81 kts 23°
2026-05-06 14:22 38.77927 -9.13698 375 ft 53 kts 20°
2026-05-06 14:22 38.78186 -9.13563 372 ft 27 kts 41°
2026-05-06 14:23 38.78195 -9.13467 374 ft 10 kts 149°
2026-05-06 14:23 38.78124 -9.13445 367 ft 11 kts 167°
2026-05-06 14:23 38.78044 -9.13421 365 ft 12 kts 168°
2026-05-06 14:23 38.77954 -9.13397 358 ft 14 kts 166°
2026-05-06 14:24 38.77860 -9.13369 354 ft 15 kts 167°
2026-05-06 14:24 38.77758 -9.13343 348 ft 15 kts 168°
2026-05-06 14:24 38.77651 -9.13321 343 ft 16 kts 176°
2026-05-06 14:24 38.77549 -9.13311 343 ft 8 kts 165°
2026-05-06 14:25 38.77539 -9.13240 348 ft 8 kts 77°
2026-05-06 14:25 38.77546 -9.13197 343 ft 4 kts 78°
2026-05-06 14:25 38.77549 -9.13176 345 ft 2 kts 77°
2026-05-06 14:25 38.77550 -9.13174 345 ft 0 kts 77°